Retour au catalogue

STARLINK-4548

ActifCommunicationsVLEO
NORAD 53431·PAYLOAD·🇺🇸 United States

Lancé Aug 10, 2022 depuis Cape Canaveral Space Force Station

Loading…

Prochains Passages (prochaines 24 heures)

TLE

FraisSource: CelesTrak SupGP

Époque: Sep 15, 2026, 01:20 UTC

1 53431C 22097AV  26258.05604167  .00033700  00000+0  96421-3 0  2583
2 53431  53.1578 319.1955 0001129  95.3067 284.9135 15.35381149    16

Suivez STARLINK-4548 en temps réel avec AllMySat

Download on the App Store